Fort Dix, NJ

12:03 AM EDT on July 28, 2016 (GMT -0400)
McGuire Air Force Base

Weather History for KWRI - December, 2012

Change the Weather History Date:

Sunday, December 16, 2012

  Actual Average Record
Temperature  
Mean Temperature 48 °F -  
Max Temperature 53 °F 45 °F 86 °F (2003)
Min Temperature 42 °F 27 °F 16 °F (2010)
Degree Days  
Heating Degree Days 18    
Moisture  
Dew Point 47 °F    
Average Humidity 95    
Maximum Humidity 100    
Minimum Humidity 77    
Precipitation  
Precipitation 0.11 in - - ()
Sea Level Pressure  
Sea Level Pressure 29.96 in    
Wind  
Wind Speed 4 mph (NE)    
Max Wind Speed 10 mph    
Max Gust Speed -    
Visibility 7 miles    
Events Rain    
Averages and records for this station are not official NWS values.
T = Trace of Precipitation, MM = Missing Value Source: NWS Daily Summary

Daily Weather History Graph

Daily Weather History Graph

Search for Another Location

Airport or City:

Trip Planner

Search our weather history database for the weather conditions in past years. The results will help you decide how hot, cold, wet, or windy it might be!

Date:

Astronomy

Dec. 16, 2012 Rise Set
Actual Time 7:14 AM EST 4:34 PM EST
Civil Twilight 6:43 AM EST 5:05 PM EST
Nautical Twilight 6:09 AM EST 5:39 PM EST
Astronomical Twilight 5:36 AM EST 6:12 PM EST
Moon 9:46 AM EST (12/16) 8:45 PM EST (12/16)
Length of Visible Light 10h 21m
Length of Day
9h 20m
Waxing Crescent, 16% of the Moon is Illuminated
Dec 16
Waxing Crescent
Dec 20
First Quarter
Dec 28
Full
Jan 4
Last Quarter
Jan 11
New

Hourly Weather History & Observations

Time (EST) Temp. Windchill Dew Point Humidity Pressure Visibility Wind Dir Wind Speed Gust Speed Precip Events Conditions
12:55 AM 43.3 °F 41.7 °F 37.4 °F 80% 30.16 in 10.0 mi East 3.5 mph - N/A   Mostly Cloudy
1:00 AM 42.8 °F - 37.4 °F 81% 30.16 in 10.0 mi Calm Calm - N/A   Mostly Cloudy
1:55 AM 43.0 °F 40.3 °F 38.3 °F 84% 30.16 in 10.0 mi ENE 4.6 mph - N/A   Overcast
2:55 AM 43.7 °F 41.1 °F 38.7 °F 82% 30.13 in 10.0 mi East 4.6 mph - N/A   Overcast
3:11 AM 42.8 °F 39.3 °F 39.2 °F 87% 30.12 in 10.0 mi East 5.8 mph - N/A   Mostly Cloudy
3:55 AM 44.1 °F 40.8 °F 39.4 °F 84% 30.10 in 10.0 mi East 5.8 mph - N/A   Overcast
4:55 AM 46.0 °F 44.8 °F 41.2 °F 83% 30.10 in 10.0 mi East 3.5 mph - N/A   Overcast
4:56 AM 46.4 °F 45.2 °F 41.0 °F 81% 30.09 in 10.0 mi East 3.5 mph - N/A Rain Light Rain
5:18 AM 44.6 °F 42.2 °F 42.8 °F 93% 30.09 in 10.0 mi East 4.6 mph - N/A   Mostly Cloudy
5:55 AM 45.9 °F 43.6 °F 43.0 °F 90% 30.08 in 10.0 mi East 4.6 mph - 0.00 in   Mostly Cloudy
6:55 AM 45.7 °F 42.7 °F 43.0 °F 90% 30.08 in 10.0 mi ESE 5.8 mph - N/A   Overcast
7:27 AM 46.4 °F 44.3 °F 44.6 °F 93% 30.06 in 10.0 mi ESE 4.6 mph - N/A   Overcast
7:29 AM 46.4 °F 44.3 °F 44.6 °F 93% 30.06 in 10.0 mi ESE 4.6 mph - N/A   Overcast
7:30 AM 46.4 °F 44.3 °F 44.6 °F 93% 30.06 in 10.0 mi ESE 4.6 mph - N/A   Overcast
7:32 AM 46.4 °F 44.3 °F 44.6 °F 93% 30.06 in 10.0 mi East 4.6 mph - N/A   Overcast
7:55 AM 47.1 °F - 44.6 °F 91% 30.06 in 10.0 mi ESE 5.8 mph - N/A   Overcast
8:23 AM 48.2 °F - 44.6 °F 87% 30.06 in 10.0 mi SSE 4.6 mph - N/A   Overcast
8:41 AM 48.2 °F - 46.4 °F 93% 30.05 in 10.0 mi SSE 3.5 mph - N/A   Overcast
8:55 AM 48.4 °F - 45.9 °F 91% 30.05 in 10.0 mi SE 4.6 mph - N/A   Overcast
9:01 AM 48.2 °F - 46.4 °F 93% 30.05 in 10.0 mi SE 3.5 mph - N/A   Overcast
9:55 AM 50.5 °F - 47.1 °F 88% 30.05 in 10.0 mi SSE 3.5 mph - N/A   Overcast
10:55 AM 52.0 °F - 46.9 °F 83% 30.03 in 10.0 mi Calm Calm - N/A   Mostly Cloudy
11:02 AM 51.8 °F - 46.4 °F 82% 30.02 in 10.0 mi Calm Calm - N/A   Mostly Cloudy
11:03 AM 51.8 °F - 46.4 °F 82% 30.02 in 10.0 mi Calm Calm - N/A   Mostly Cloudy
11:04 AM 51.8 °F - 46.4 °F 82% 30.02 in 10.0 mi Calm Calm - N/A   Mostly Cloudy
11:06 AM 51.8 °F - 46.4 °F 82% 30.02 in 10.0 mi Calm Calm - N/A   Mostly Cloudy
11:07 AM 51.8 °F - 46.4 °F 82% 30.02 in 10.0 mi Calm Calm - N/A   Mostly Cloudy
11:28 AM 51.8 °F - 46.4 °F 82% 30.00 in 10.0 mi Calm Calm - N/A   Overcast
11:43 AM 53.6 °F - 46.4 °F 77% 29.99 in 10.0 mi Calm Calm - N/A   Overcast
11:55 AM 52.9 °F - 46.2 °F 78% 29.99 in 10.0 mi Calm Calm - N/A   Overcast
12:24 PM 51.8 °F - 46.4 °F 82% 29.98 in 10.0 mi Calm Calm - N/A   Overcast
12:38 PM 51.8 °F - 46.4 °F 82% 29.98 in 9.0 mi Calm Calm - N/A Rain Light Rain
12:49 PM 51.8 °F - 48.2 °F 88% 29.98 in 2.5 mi Calm Calm - N/A Rain Light Rain
12:55 PM 50.7 °F - 48.4 °F 92% 29.97 in 2.0 mi Calm Calm - 0.00 in Rain Light Rain
1:02 PM 50.0 °F - 48.2 °F 94% 29.96 in 2.5 mi Calm Calm - N/A   Light Drizzle
1:05 PM 50.0 °F - 48.2 °F 94% 29.96 in 2.5 mi Calm Calm - N/A   Scattered Clouds
1:07 PM 50.0 °F - 48.2 °F 94% 29.96 in 3.0 mi East 3.5 mph - N/A   Scattered Clouds
1:33 PM 50.0 °F - 50.0 °F 100% 29.96 in 4.0 mi NE 3.5 mph - N/A Rain Light Rain
1:39 PM 50.0 °F - 50.0 °F 100% 29.96 in 2.5 mi NE 4.6 mph - N/A Rain Light Rain
1:55 PM 49.8 °F - 49.3 °F 98% 29.96 in 2.0 mi NE 3.5 mph - 0.02 in Rain Light Rain
2:25 PM 50.0 °F - 50.0 °F 100% 29.95 in 2.0 mi NE 3.5 mph - N/A Rain Light Rain
2:27 PM 50.0 °F - 50.0 °F 100% 29.94 in 1.8 mi NE 4.6 mph - N/A Rain Light Rain
2:37 PM 50.0 °F - 50.0 °F 100% 29.94 in 2.0 mi ENE 5.8 mph - N/A   Scattered Clouds
2:48 PM 50.0 °F - 50.0 °F 100% 29.94 in 3.0 mi East 5.8 mph - N/A   Scattered Clouds
2:53 PM 50.0 °F - 50.0 °F 100% 29.94 in 4.0 mi ENE 5.8 mph - N/A   Mostly Cloudy
2:55 PM 49.6 °F - 49.5 °F 99% 29.94 in 4.0 mi ENE 4.6 mph - 0.01 in   Mostly Cloudy
2:56 PM 50.0 °F - 50.0 °F 100% 29.94 in 4.0 mi ENE 5.8 mph - N/A   Scattered Clouds
3:17 PM 50.0 °F - 50.0 °F 100% 29.93 in 2.5 mi NE 6.9 mph - N/A   Overcast
3:19 PM 50.0 °F - 50.0 °F 100% 29.93 in 2.5 mi NE 5.8 mph - N/A   Overcast
3:26 PM 50.0 °F - 50.0 °F 100% 29.94 in 2.0 mi NE 3.5 mph - N/A   Overcast
3:29 PM 50.0 °F - 50.0 °F 100% 29.94 in 1.8 mi NNE 3.5 mph - N/A   Overcast
3:30 PM 50.0 °F - 50.0 °F 100% 29.94 in 2.0 mi NNE 3.5 mph - N/A   Overcast
3:39 PM 50.0 °F - 50.0 °F 100% 29.93 in 1.8 mi NNE 4.6 mph - N/A   Overcast
3:40 PM 50.0 °F - 50.0 °F 100% 29.93 in 1.8 mi NNE 4.6 mph - N/A Rain Light Rain
3:42 PM 50.0 °F - 50.0 °F 100% 29.93 in 1.5 mi NE 5.8 mph - N/A Rain Light Rain
3:46 PM 50.0 °F - 50.0 °F 100% 29.93 in 1.2 mi NE 5.8 mph - N/A Rain Light Rain
3:48 PM 50.0 °F - 50.0 °F 100% 29.93 in 1.5 mi NE 5.8 mph - N/A Rain Light Rain
3:54 PM 50.0 °F - 50.0 °F 100% 29.92 in 1.8 mi NE 4.6 mph - N/A   Overcast
3:55 PM 49.6 °F - 49.5 °F 99% 29.92 in 1.8 mi ENE 4.6 mph - 0.01 in   Overcast
4:02 PM 50.0 °F - 50.0 °F 100% 29.92 in 2.0 mi NE 3.5 mph - N/A   Overcast
4:17 PM 50.0 °F - 50.0 °F 100% 29.91 in 3.0 mi NNE 5.8 mph - N/A   Overcast
4:21 PM 50.0 °F - 50.0 °F 100% 29.91 in 2.5 mi NE 5.8 mph - N/A   Overcast
4:28 PM 50.0 °F - 50.0 °F 100% 29.91 in 3.0 mi NNE 4.6 mph - N/A   Overcast
4:48 PM 50.0 °F - 50.0 °F 100% 29.92 in 6.0 mi Calm Calm - N/A   Overcast
4:49 PM 50.0 °F - 50.0 °F 100% 29.92 in 6.0 mi Calm Calm - N/A   Overcast
4:55 PM 49.5 °F - 49.3 °F 99% 29.91 in 7.0 mi Calm Calm - N/A   Overcast
4:59 PM 50.0 °F - 50.0 °F 100% 29.91 in 6.0 mi North 3.5 mph - N/A   Overcast
5:08 PM 50.0 °F - 50.0 °F 100% 29.91 in 7.0 mi NNE 4.6 mph - N/A   Overcast
5:48 PM 50.0 °F - 50.0 °F 100% 29.91 in 9.0 mi Calm Calm - N/A   Overcast
5:55 PM 49.8 °F - 49.6 °F 99% 29.91 in 10.0 mi Calm Calm - N/A   Overcast
6:09 PM 50.0 °F - 50.0 °F 100% 29.90 in 9.0 mi NE 3.5 mph - N/A   Overcast
6:46 PM 50.0 °F - 48.2 °F 94% 29.90 in 9.0 mi NNE 8.1 mph - N/A   Overcast
6:55 PM 49.3 °F - 49.1 °F 99% 29.90 in 9.0 mi NE 5.8 mph - N/A   Overcast
6:56 PM 50.0 °F - 48.2 °F 94% 29.90 in 9.0 mi NNE 4.6 mph - N/A   Overcast
7:08 PM 50.0 °F - 48.2 °F 94% 29.89 in 6.0 mi NE 9.2 mph - N/A   Overcast
7:51 PM 48.2 °F - 48.2 °F 100% 29.90 in 4.0 mi NE 5.8 mph - N/A   Overcast
7:55 PM 48.6 °F - 48.4 °F 99% 29.90 in 4.0 mi NE 6.9 mph - N/A   Overcast
8:02 PM 48.2 °F - 48.2 °F 100% 29.90 in 4.0 mi NE 5.8 mph - N/A   Overcast
8:05 PM 48.2 °F - 48.2 °F 100% 29.90 in 4.0 mi NNE 6.9 mph - N/A   Overcast
8:29 PM 48.2 °F - 48.2 °F 100% 29.89 in 5.0 mi NE 10.4 mph - N/A   Overcast
8:44 PM 48.2 °F - 48.2 °F 100% 29.89 in 5.0 mi NE 9.2 mph - N/A   Overcast
8:55 PM 47.7 °F - 47.3 °F 99% 29.89 in 8.0 mi North 6.9 mph - 0.01 in   Overcast
8:56 PM 48.2 °F - 48.2 °F 100% 29.89 in 8.0 mi NNE 8.1 mph - N/A   Overcast
9:04 PM 48.2 °F - 46.4 °F 93% 29.89 in 10.0 mi NE 5.8 mph - N/A Rain Light Rain
9:55 PM 46.8 °F - 46.6 °F 99% 29.89 in 10.0 mi NE 5.8 mph - 0.01 in Rain Light Rain
10:15 PM 46.4 °F 45.2 °F 46.4 °F 100% 29.89 in 8.0 mi NE 3.5 mph - N/A Rain Light Rain
10:20 PM 46.4 °F 44.3 °F 46.4 °F 100% 29.89 in 8.0 mi NE 4.6 mph - N/A Rain Light Rain
10:34 PM 46.4 °F 44.3 °F 46.4 °F 100% 29.90 in 10.0 mi NNE 4.6 mph - N/A Rain Light Rain
10:54 PM 46.4 °F 45.2 °F 46.4 °F 100% 29.90 in 10.0 mi NNE 3.5 mph - N/A Rain Light Rain
10:55 PM 46.6 °F - 46.4 °F 99% 29.90 in 10.0 mi NNE 3.5 mph - 0.04 in Rain Light Rain
11:18 PM 46.4 °F 42.9 °F 46.4 °F 100% 29.88 in 9.0 mi NE 6.9 mph - N/A Rain Light Rain
11:20 PM 46.4 °F 43.5 °F 46.4 °F 100% 29.88 in 9.0 mi NE 5.8 mph - N/A Rain Light Rain
11:26 PM 46.4 °F 45.2 °F 46.4 °F 100% 29.88 in 9.0 mi NE 3.5 mph - N/A Rain Light Rain
11:32 PM 46.4 °F 45.2 °F 46.4 °F 100% 29.88 in 9.0 mi NNE 3.5 mph - N/A Rain Light Rain
11:34 PM 46.4 °F 45.2 °F 46.4 °F 100% 29.88 in 9.0 mi NNE 3.5 mph - N/A   Overcast
11:54 PM 46.4 °F 43.5 °F 46.4 °F 100% 29.88 in 10.0 mi NNE 5.8 mph - N/A Rain Light Rain
11:55 PM 46.2 °F 44.1 °F 46.0 °F 99% 29.88 in 10.0 mi NNE 4.6 mph - 0.01 in Rain Light Rain